Loisir ou Compétition : Rejoignez un Club de la Fédération

Résultats

GRAND PRIX DE MEGEVE

MEGEVE

KO-QLF Hommes

Jury de Compétition

Délégué Technique :
PIQUOT SYLVAIN (MB)
D.T. Adjoint :
PORRET THIERRY (MB)
Dir. Epreuve :
RUAU GWENAEL (MB)

Caractéristiques de la Piste

Piste :
LA LIVRAZ
Distance :
0.8 km
Point Haut :
 
Point Bas :
 
Montée Tot. :
 
Montée Max. :
 
Homologation :
2016-63-1

Pénalité Appliquée :
 
Coefficient :
 

Catégorie :
U15
Style :
L
Clt Dos Clt/Cat Code An Nom Prénom Com Club Temps Ecart Points
Classés
1 393 1/U15 FFS2664692 2004 GROS MICHELE MB SC CONTAMINE 1:57.88 00.00
2 399 2/U15 FFS2670262 2004 MICHEL Julien MB CS LA CLUSAZ 1:58.01 00.13
3 400 3/U15 FFS2681664 2004 PERROUD DORIAN MB SCNP ROCHOIS 1:58.40 00.52
4 384 4/U15 FFS2691994 2004 BELLE CLOT SAMUEL MB SCNP ROCHOIS 1:58.65 00.77
5 387 5/U15 FFS2650224 2004 LAUSENAZ ANTHONY MB CHABLAIS NOR 1:59.45 01.57
6 326 6/U15 FFS2686938 2005 VALLEIX JORIS MB SCNP ROCHOIS 2:02.00 04.12
7 379 7/U15 FFS2648791 2004 FORTINA ADAM MB SC CONTAMINE 2:02.48 04.60
8 386 8/U15 FFS2670259 2004 BLANCHARD Titouan MB CS LA CLUSAZ 2:02.64 04.76
9 363 9/U15 FFS2682762 2004 CALANDRY RAPHAEL MB DRAGONS ANNY 2:02.86 04.98
10 369 10/U15 FFS2681663 2004 LEVET GASTON MB SCNP ROCHOIS 2:04.00 06.12
11 375 11/U15 FFS2681320 2004 LEBARD JAN MB DRAGONS ANNY 2:04.33 06.45
12 348 12/U15 FFS2667744 2005 BIZZOCCHI ESTEBAN MB SC D'AGY 2:04.43 06.55
13 405 13/U15 FFS2682178 2004 Biollaz Thomas MB PRAZ LYS-SOM 2:04.68 06.80
14 381 14/U15 FFS2661783 2004 JOUANNAUD LIONEL MB CS CHAMONIX 2:06.29 08.41
15 394 15/U15 FFS2657830 2004 BLANC ROBIN SA SC ARECHES 2:06.34 08.46
16 402 16/U15 FFS2686282 2004 DIERSTEIN Arthur MB CNG 2:06.69 08.81
17 324 17/U15 FFS2686242 2005 VIGUIER Quentin MB CS LA CLUSAZ 2:08.05 10.17
18 325 18/U15 FFS2686681 2005 DELOCHE Lino MB SC GD BORNAN 2:08.10 10.22
19 376 19/U15 FFS2691698 2004 GEORGES THIBAULT MB SALLANCHES 2:08.15 10.27
20 373 20/U15 FFS2680962 2004 PERRILLAT COLLOMB MATHEO MB SC GD BORNAN 2:08.29 10.41
21 403 21/U15 FFS2677078 2004 SEVESSAND LOUP SA SC ARECHES 2:08.30 10.42
22 343 22/U15 FFS2671565 2005 COLOMBAN ALEXIS MB SCNP ROCHOIS 2:08.64 10.76
23 388 23/U15 FFS2670261 2004 FAVRE REGUILLON MATHELYO MB CS LA CLUSAZ 2:09.35 11.47
23 389 23/U15 FFS2682010 2004 BONAVENT THOMAS MB SC D'AGY 2:09.35 11.47
25 395 25/U15 FFS2668666 2004 DOUKARI ALEXIS MB SALLANCHES 2:09.78 11.90
26 390 26/U15 FFS2696374 2004 FUCHS Arthur MB CS LA CLUSAZ 2:10.23 12.35
27 362 27/U15 FFS2662962 2004 PANISSET Simon MB SC GD BORNAN 2:10.90 13.02
28 337 28/U15 FFS2686663 2005 PERRILLAT BOITEUX ANTHONY MB SC GD BORNAN 2:11.11 13.23
29 397 29/U15 FFS2678952 2004 FAVRE BONVIN Titouan MB SC GD BORNAN 2:11.27 13.39
30 361 30/U15 FFS2682008 2004 PRIVE CONSTANT MB SC D'AGY 2:11.40 13.52
31 367 31/U15 FFS2681588 2004 GENTET RONAN MB CS ARGENTIER 2:13.21 15.33
32 406 32/U15 FFS2682024 2004 MILLAN SYLVAIN MB VILLARD/BOEG 2:13.27 15.39
33 364 33/U15 FFS2668129 2004 BAUD CESAR MB LES GETS S.C 2:13.82 15.94
34 335 34/U15 FFS2676910 2005 CLAVEL Simon MB CS LA CLUSAZ 2:14.24 16.36
35 366 35/U15 FFS2681277 2004 PETILLEON TAO MB PRAZ LYS-SOM 2:14.54 16.66
36 352 36/U15 FFS2686939 2005 GRENARD MAX MB SCNP ROCHOIS 2:14.85 16.97
37 357 37/U15 FFS2686795 2005 DELERCE THIBAULT MB SC D'AGY 2:15.01 17.13
38 378 38/U15 FFS2669366 2004 ROBERT ELOUAN MB SALLANCHES 2:15.31 17.43
39 354 39/U15 FFS2686695 2005 PERRILLAT BOTTONET JUDICA MB SC GD BORNAN 2:15.47 17.59
40 358 40/U15 FFS2686793 2005 MARIE ADELIN MB SC D'AGY 2:16.09 18.21
41 356 41/U15 FFS2692552 2005 PETROD Bastien MB CNG 2:16.87 18.99
42 368 42/U15 FFS2681321 2004 BETRIX ALEXIS MB CHABLAIS NOR 2:17.44 19.56
43 340 43/U15 FFS2686539 2005 LACROIX MATTHIAS MB DRAGONS ANNY 2:17.56 19.68
44 370 44/U15 FFS2672940 2004 DUNBAR KRAY SA SC ARECHES 2:18.00 20.12
45 377 45/U15 FFS2681169 2004 JOSSERAND Antoine MB CS LA CLUSAZ 2:18.44 20.56
46 359 46/U15 FFS2686538 2005 JOMIER LOIS MB DRAGONS ANNY 2:18.71 20.83
47 351 47/U15 FFS2666324 2005 FAVRE FELIX KILLIAN MB SC GD BORNAN 2:18.80 20.92
48 382 48/U15 FFS2663071 2004 BEGUEX LOUIS MB VILLARD/BOEG 2:19.37 21.49
49 342 49/U15 FFS2681171 2005 LUZET Hugo MB CS LA CLUSAZ 2:19.60 21.72
50 339 50/U15 FFS2686543 2005 ROMERI NATHAN MB DRAGONS ANNY 2:20.27 22.39
51 383 51/U15 FFS2681002 2004 GONIN LEANDRE MB SC GD BORNAN 2:20.69 22.81
52 341 52/U15 FFS2673756 2005 PEYRON ARTHUR MB CS CHAMONIX 2:21.82 23.94
53 404 53/U15 FFS2682027 2004 GALLAY ETHAN MB VILLARD/BOEG 2:23.05 25.17
54 336 54/U15 FFS2686260 2005 Bossut Augustin MB PRAZ LYS-SOM 2:23.15 25.27
55 385 55/U15 FFS2692551 2004 PEIGNE Victor MB CNG 2:23.99 26.11
56 321 56/U15 FFS2687102 2005 SYLVESTRE BARON PAUL MB SCNP ROCHOIS 2:24.15 26.27
56 365 56/U15 FFS2683536 2004 JACQUEMARD SWAN MB CS ARGENTIER 2:24.15 26.27
58 401 58/U15 FFS2660349 2004 DELOCHE Tristan MB SC GD BORNAN 2:24.36 26.48
59 334 59/U15 FFS2690481 2005 THABUIS BASILE MB VILLARD/BOEG 2:24.44 26.56
60 374 60/U15 FFS2666956 2004 BLAIZE REMI MB VILLARD/BOEG 2:24.59 26.71
61 331 61/U15 FFS2686940 2005 LEVET PROSPER MB SCNP ROCHOIS 2:24.80 26.92
62 332 62/U15 FFS2687034 2005 FIVEL DEMORET HUGO MB SC CONTAMINE 2:25.02 27.14
63 329 63/U15 FFS2692554 2005 ZAVARISE Noah MB CNG 2:25.61 27.73
64 398 64/U15 FFS2697012 2004 VIRON ADRIEN MB SCNP ROCHOIS 2:26.09 28.21
65 320 65/U15 FFS2696599 2005 MOREL ANTOINE SA SC ARECHES 2:26.46 28.58
66 322 66/U15 FFS2681304 2005 PERSONNAZ LOAN MB DRAGONS ANNY 2:26.78 28.90
67 344 67/U15 FFS2681424 2005 BOUVEROT TINO MB SC CONTAMINE 2:27.25 29.37
68 323 68/U15 FFS2666342 2005 OUVRIER BUFFET Jules MB CS LA CLUSAZ 2:27.51 29.63
69 347 69/U15 FFS2688657 2005 BARD ILANN MB VILLARD/BOEG 2:28.06 30.18
70 355 70/U15 FFS2688043 2005 MAGNIEZ OSCAR MB DRAGONS ANNY 2:28.81 30.93
71 318 71/U15 FFS2686801 2005 GARBY KEVIN MB SC D'AGY 2:29.11 31.23
72 372 72/U15 FFS2663262 2004 LANVERS MATTEO MB VILLARD/BOEG 2:29.42 31.54
73 346 73/U15 FFS2686262 2005 Lessertisseux Valentin MB PRAZ LYS-SOM 2:29.56 31.68
74 392 74/U15 FFS2682327 2004 GURLIAT MATHIS MB SCNP ROCHOIS 2:30.31 32.43
75 328 75/U15 FFS2678687 2005 MILLET DIWAN MB SCNP ROCHOIS 2:30.58 32.70
76 319 76/U15 FFS2687103 2005 MOREAU SIMEON MB SCNP ROCHOIS 2:32.41 34.53
77 327 77/U15 FFS2676738 2005 CHETAIL JULES MB CS MEGEVE 2:32.51 34.63
78 360 78/U15 FFS2686905 2005 MIR EMARATI MILO MB CS CHAMONIX 2:32.74 34.86
79 391 79/U15 FFS2681813 2004 ANGRAND LOUIS MB VILLARD/BOEG 2:32.98 35.10
80 380 80/U15 FFS2663405 2004 JOCHUM ADRIEN MB LES GETS S.C 2:34.66 36.78
81 349 81/U15 FFS2682397 2005 SUET PIERRE SA SC ARECHES 2:35.34 37.46
82 317 82/U15 FFS2686535 2005 FAILLENET JORIS MB DRAGONS ANNY 2:35.78 37.90
83 338 83/U15 FFS2687856 2005 VEISY KILLIAN MB EN HT GIFFRE 2:36.76 38.88
84 350 84/U15 FFS2688678 2005 REPELLIN CHARLES MB VILLARD/BOEG 2:37.94 40.06
85 353 85/U15 FFS2686293 2005 GRANGE JUSTIN MB DRAGONS ANNY 2:39.10 41.22
86 330 86/U15 FFS2687035 2005 CORNU MATHIEU MB CS CHAMONIX 2:39.55 41.67
87 333 87/U15 FFS2686259 2005 Ducrey Brice MB PRAZ LYS-SOM 2:39.97 42.09
88 345 88/U15 FFS2696236 2005 MONGELLAZ JULES MB SC CONTAMINE 2:48.11 50.23
Non partants
371 FFS2681260 2004 BOEHLER DORIAN MB LES GETS S.C
396 FFS2677073 2004 COSTE ANTOINE SA SC ARECHES